Change the Weather History Date:

Saturday, February 9, 2013

  Actual Average Record
Temperature  
Mean Temperature 48 °F -  
Max Temperature 55 °F 56 °F 80 °F (1999)
Min Temperature 42 °F 41 °F 21 °F (2011)
Degree Days  
Heating Degree Days 16    
Moisture  
Dew Point 42 °F    
Average Humidity 82    
Maximum Humidity 94    
Minimum Humidity 66    
Precipitation  
Precipitation 0.08 in - - ()
Sea Level Pressure  
Sea Level Pressure 30.03 in    
Wind  
Wind Speed 8 mph (ESE)    
Max Wind Speed 15 mph    
Max Gust Speed 21 mph    
Visibility 7 miles    
Events Rain , Thunderstorm    
Averages and records for this station are not official NWS values.
T = Trace of Precipitation, MM = Missing Value Source: NWS Daily Summary

Daily Weather History Graph

Daily Weather History Graph

Search for Another Location

Airport or City:

Trip Planner

Search our weather history database for the weather conditions in past years. The results will help you decide how hot, cold, wet, or windy it might be!

Date:

Astronomy

Feb. 09, 2013 Rise Set
Actual Time 7:13 AM CST 6:04 PM CST
Civil Twilight 6:47 AM CST 6:29 PM CST
Nautical Twilight 6:18 AM CST 6:59 PM CST
Astronomical Twilight 5:49 AM CST 7:27 PM CST
Moon 6:26 AM CST (2/9) 5:46 PM CST (2/9)
Length of Visible Light 11h 42m
Length of Day
10h 51m
Waning Crescent, 0% of the Moon is Illuminated
Feb 9
Waning Crescent
Feb 10
New
Feb 17
First Quarter
Feb 25
Full
Mar 4
Last Quarter

Hourly Weather History & Observations

Time (CST) Temp. Windchill Dew Point Humidity Pressure Visibility Wind Dir Wind Speed Gust Speed Precip Events Conditions
12:15 AM 42.8 °F 40.1 °F 33.8 °F 70% 30.16 in 10.0 mi SE 4.6 mph - N/A   Clear
12:35 AM 44.6 °F 43.1 °F 33.8 °F 66% 30.16 in 10.0 mi East 3.5 mph - N/A   Clear
12:55 AM 44.6 °F 43.1 °F 33.8 °F 66% 30.17 in 10.0 mi ESE 3.5 mph - N/A   Clear
1:15 AM 44.6 °F 40.7 °F 35.6 °F 71% 30.14 in 10.0 mi East 6.9 mph - N/A   Clear
1:35 AM 44.6 °F 42.2 °F 35.6 °F 71% 30.15 in 10.0 mi East 4.6 mph - N/A   Scattered Clouds
1:55 AM 44.6 °F 42.2 °F 35.6 °F 71% 30.15 in 10.0 mi ESE 4.6 mph - N/A   Scattered Clouds
2:15 AM 44.6 °F - 35.6 °F 71% 30.16 in 10.0 mi Calm Calm - N/A   Clear
2:35 AM 44.6 °F 42.2 °F 35.6 °F 71% 30.15 in 10.0 mi East 4.6 mph - N/A   Clear
2:55 AM 44.6 °F 42.2 °F 35.6 °F 71% 30.15 in 10.0 mi East 4.6 mph - N/A   Clear
3:15 AM 44.6 °F 41.4 °F 37.4 °F 76% 30.14 in 10.0 mi East 5.8 mph - N/A   Clear
3:35 AM 44.6 °F 40.2 °F 37.4 °F 76% 30.12 in 10.0 mi East 8.1 mph - N/A   Clear
4:15 AM 44.6 °F 40.2 °F 37.4 °F 76% 30.14 in 10.0 mi East 8.1 mph - N/A   Clear
4:35 AM 44.6 °F 40.7 °F 37.4 °F 76% 30.15 in 10.0 mi ESE 6.9 mph - N/A   Scattered Clouds
4:55 AM 44.6 °F 41.4 °F 37.4 °F 76% 30.16 in 10.0 mi ESE 5.8 mph - N/A   Mostly Cloudy
5:15 AM 44.6 °F 42.2 °F 37.4 °F 76% 30.16 in 10.0 mi East 4.6 mph - N/A   Overcast
5:35 AM 44.6 °F 40.7 °F 37.4 °F 76% 30.15 in 10.0 mi ESE 6.9 mph - N/A   Overcast
5:55 AM 44.6 °F 41.4 °F 37.4 °F 76% 30.15 in 10.0 mi ESE 5.8 mph - N/A   Overcast
6:15 AM 44.6 °F 40.7 °F 37.4 °F 76% 30.15 in 10.0 mi ESE 6.9 mph - N/A   Overcast
6:35 AM 44.6 °F 40.7 °F 37.4 °F 76% 30.15 in 10.0 mi ESE 6.9 mph - N/A   Overcast
6:55 AM 44.6 °F 40.2 °F 37.4 °F 76% 30.14 in 10.0 mi East 8.1 mph - N/A   Overcast
7:15 AM 44.6 °F 40.2 °F 37.4 °F 76% 30.13 in 10.0 mi East 8.1 mph - N/A   Mostly Cloudy
7:35 AM 44.6 °F 39.7 °F 37.4 °F 76% 30.14 in 10.0 mi ESE 9.2 mph - N/A   Scattered Clouds
7:55 AM 44.6 °F 40.2 °F 37.4 °F 76% 30.14 in 10.0 mi East 8.1 mph - N/A   Scattered Clouds
8:15 AM 44.6 °F 41.4 °F 37.4 °F 76% 30.14 in 10.0 mi East 5.8 mph - N/A   Mostly Cloudy
8:55 AM 44.6 °F 38.4 °F 37.4 °F 76% 30.14 in 10.0 mi ESE 12.7 mph 19.6 mph N/A   Overcast
9:15 AM 44.6 °F 39.7 °F 37.4 °F 76% 30.14 in 10.0 mi ESE 9.2 mph - N/A   Overcast
9:35 AM 44.6 °F 38.1 °F 37.4 °F 76% 30.14 in 7.0 mi ESE 13.8 mph 18.4 mph N/A   Overcast
9:55 AM 44.6 °F 38.4 °F 37.4 °F 76% 30.14 in 10.0 mi SE 12.7 mph - N/A   Overcast
10:15 AM 44.6 °F 38.4 °F 37.4 °F 76% 30.13 in 10.0 mi ESE 12.7 mph 18.4 mph N/A   Overcast
10:35 AM 44.6 °F 37.8 °F 37.4 °F 76% 30.13 in 10.0 mi SE 15.0 mph 20.7 mph N/A   Overcast
10:55 AM 44.6 °F 39.2 °F 37.4 °F 76% 30.13 in 10.0 mi ESE 10.4 mph - N/A   Overcast
11:15 AM 44.6 °F 40.2 °F 39.2 °F 81% 30.12 in 7.0 mi SE 8.1 mph 16.1 mph N/A   Overcast
11:35 AM 44.6 °F 38.8 °F 39.2 °F 81% 30.10 in 7.0 mi SE 11.5 mph - N/A   Overcast
11:55 AM 46.4 °F 40.1 °F 41.0 °F 81% 30.09 in 10.0 mi SE 15.0 mph 19.6 mph N/A   Overcast
12:15 PM 46.4 °F 40.4 °F 41.0 °F 81% 30.07 in 10.0 mi ESE 13.8 mph 17.3 mph N/A   Overcast
12:35 PM 46.4 °F 41.1 °F 41.0 °F 81% 30.06 in 10.0 mi SE 11.5 mph 19.6 mph N/A   Overcast
12:55 PM 48.2 °F - 41.0 °F 76% 30.04 in 10.0 mi ESE 10.4 mph - N/A   Overcast
1:15 PM 48.2 °F - 42.8 °F 82% 30.02 in 10.0 mi ESE 12.7 mph - N/A   Overcast
1:35 PM 48.2 °F - 42.8 °F 82% 30.01 in 7.0 mi SE 11.5 mph - N/A   Overcast
1:55 PM 50.0 °F - 42.8 °F 76% 30.00 in 10.0 mi ESE 10.4 mph - N/A   Overcast
2:15 PM 50.0 °F - 42.8 °F 76% 29.97 in 7.0 mi ESE 11.5 mph 17.3 mph N/A   Overcast
2:35 PM 50.0 °F - 42.8 °F 76% 29.96 in 7.0 mi East 9.2 mph - N/A   Overcast
2:55 PM 50.0 °F - 42.8 °F 76% 29.96 in 7.0 mi ESE 10.4 mph - N/A Thunderstorm Overcast
3:15 PM 50.0 °F - 42.8 °F 76% 29.94 in 7.0 mi East 10.4 mph - N/A Thunderstorm Overcast
3:35 PM 48.2 °F - 44.6 °F 87% 29.94 in 4.0 mi East 8.1 mph - 0.01 in Rain , Thunderstorm Light Thunderstorms and Rain
3:55 PM 46.4 °F 42.4 °F 44.6 °F 93% 29.93 in 2.5 mi East 8.1 mph - 0.05 in Rain Rain
4:15 PM 46.4 °F 42.4 °F 44.6 °F 93% 29.93 in 3.0 mi East 8.1 mph - N/A   Overcast
4:35 PM 46.4 °F 42.4 °F 44.6 °F 93% 29.92 in 3.0 mi ESE 8.1 mph - N/A Rain Light Rain
4:55 PM 46.4 °F 41.9 °F 44.6 °F 93% 29.92 in 2.0 mi ESE 9.2 mph - 0.01 in   Drizzle
5:15 PM 46.4 °F 41.9 °F 44.6 °F 93% 29.92 in 2.5 mi SE 9.2 mph - 0.01 in Rain Light Rain
5:35 PM 46.4 °F 41.1 °F 44.6 °F 93% 29.92 in 2.5 mi ESE 11.5 mph - 0.01 in   Overcast
5:55 PM 46.4 °F 42.9 °F 44.6 °F 93% 29.91 in 4.0 mi East 6.9 mph - 0.02 in   Overcast
6:15 PM 46.4 °F 41.9 °F 44.6 °F 93% 29.90 in 5.0 mi ESE 9.2 mph - N/A   Overcast
6:35 PM 46.4 °F 41.9 °F 44.6 °F 93% 29.89 in 4.0 mi ESE 9.2 mph 16.1 mph N/A   Overcast
6:55 PM 46.4 °F 41.5 °F 44.6 °F 93% 29.88 in 4.0 mi ESE 10.4 mph - N/A   Overcast
7:35 PM 48.2 °F - 46.4 °F 93% 29.87 in 4.0 mi ESE 10.4 mph - N/A   Overcast
7:55 PM 50.0 °F - 46.4 °F 87% 29.87 in 4.0 mi SE 11.5 mph - N/A   Overcast
8:15 PM 50.0 °F - 46.4 °F 87% 29.87 in 4.0 mi ESE 10.4 mph - N/A   Overcast
8:35 PM 50.0 °F - 48.2 °F 94% 29.88 in 4.0 mi ESE 11.5 mph - N/A   Overcast
8:55 PM 51.8 °F - 50.0 °F 94% 29.88 in 4.0 mi ESE 9.2 mph - N/A   Overcast
9:15 PM 51.8 °F - 50.0 °F 94% 29.87 in 4.0 mi ESE 9.2 mph - N/A   Overcast
9:35 PM 53.6 °F - 50.0 °F 88% 29.85 in 4.0 mi ESE 10.4 mph - N/A   Overcast
9:55 PM 53.6 °F - 51.8 °F 94% 29.85 in 4.0 mi SE 12.7 mph - N/A   Overcast
10:15 PM 53.6 °F - 51.8 °F 94% 29.84 in 4.0 mi SE 12.7 mph - N/A   Overcast
10:35 PM 53.6 °F - 51.8 °F 94% 29.83 in 4.0 mi SE 12.7 mph 20.7 mph N/A   Overcast
10:55 PM 55.4 °F - 51.8 °F 88% 29.82 in 4.0 mi SE 15.0 mph 19.6 mph N/A   Overcast
11:15 PM 55.4 °F - 53.6 °F 94% 29.81 in 3.0 mi SE 13.8 mph - N/A   Overcast
11:35 PM 55.4 °F - 53.6 °F 94% 29.80 in 3.0 mi SE 13.8 mph - N/A   Overcast
11:55 PM 55.4 °F - 53.6 °F 94% 29.79 in 3.0 mi SE 11.5 mph - N/A   Overcast